Voltar ao catálogo

CZ-6A DEB

AtivoPO
NORAD 56604·DEBRIS·🇨🇳 China

Lançado Nov 11, 2022 de Taiyuan Satellite Launch Center

Loading…

Próximas Passagens (próximas 24 horas)

TLE

AtualizadoSource: Space-Track

Época: Sep 14, 2026, 06:14 UTC

1 56604U 22151AEC 26257.26002352  .00709799  00000-0  78172-2 0  9992
2 56604  98.6055 359.9193 0023762 274.6145  85.2395 15.60557388192073

Acompanhe CZ-6A DEB em tempo real com AllMySat

Download on the App Store